Location: Brienzwiler
(46.7508°N, 8.1014°E)
Time: 00:11:49
(UTC+00:00)

Resurs 01 Rocket - Pass Details

Date: 05 July 2020
Orbit: 635 x 644 km, 98.0° (Epoch: 11 August)

Event Time Altitude Azimuth Distance (km) Brightness Sun altitude
Exits shadow 20:45:40 - 195° (SSW) 2,881 4.6 -11.0°
Reaches altitude 10° 20:48:01 10° 207° (SSW) 2,023 4.0 -11.3°
Maximum altitude 20:51:46 27° 265° (W) 1,229 3.5 -11.7°
Drops below altitude 10° 20:55:33 10° 324° (NW) 2,033 5.8 -12.1°
Sets 20:58:03 0° 336° (NNW) 2,946 6.8 -12.3°
